This is the latest recevied weather packets stored in our database for station/object WE1C. If no packets are shown the sender has not sent any weather packets the latest 10 day(s).
| Time | Temp. | Humidity | Pressure | Rain* | Wind** | Luminosity | Snow |
|---|---|---|---|---|---|---|---|
| 1777841164 | 10° C | 41% | 1035.9 hPa | 0 mm | - | 193 W/m² | - |
| 1777840861 | 10° C | 42% | 1036.2 hPa | 0 mm | - | 169 W/m² | - |
| 1777840558 | 10.56° C | 39% | 1036.1 hPa | 0 mm | - | 190 W/m² | - |
| 1777840256 | 10.56° C | 41% | 1036 hPa | 0 mm | - | 213 W/m² | - |
| 1777839953 | 10.56° C | 40% | 1036 hPa | 0 mm | - | 259 W/m² | - |
| 1777839651 | 10.56° C | 40% | 1035.8 hPa | 0 mm | - | 287 W/m² | - |
| 1777839349 | 10.56° C | 40% | 1035.9 hPa | 0 mm | - | 290 W/m² | - |
| 1777839046 | 10.56° C | 41% | 1035.8 hPa | 0 mm | - | 228 W/m² | - |
| 1777838742 | 10° C | 43% | 1035.7 hPa | 0 mm | - | 378 W/m² | - |
| 1777838438 | 10.56° C | 42% | 1035.6 hPa | 0 mm | - | 288 W/m² | - |
| 1777838136 | 10° C | 42% | 1035.6 hPa | 0 mm | - | 209 W/m² | - |
| 1777837833 | 10.56° C | 41% | 1035.7 hPa | 0 mm | - | 169 W/m² | - |
| 1777837530 | 10.56° C | 40% | 1035.7 hPa | 0 mm | - | 230 W/m² | - |
| 1777837230 | 10.56° C | 42% | 1035.7 hPa | 0 mm | - | 232 W/m² | - |
| 1777836927 | 10.56° C | 41% | 1035.7 hPa | 0 mm | - | 223 W/m² | - |
| 1777836622 | 10.56° C | 39% | 1035.6 hPa | 0 mm | - | 193 W/m² | - |
| 1777836318 | 10.56° C | 40% | 1035.7 hPa | 0 mm | - | 211 W/m² | - |
| 1777836014 | 10.56° C | 41% | 1035.7 hPa | 0 mm | - | 258 W/m² | - |
| 1777835711 | 10.56° C | 41% | 1035.7 hPa | 0 mm | - | 612 W/m² | - |
| 1777835408 | 10° C | 43% | 1035.8 hPa | 0 mm | - | 324 W/m² | - |
| 1777835105 | 10.56° C | 42% | 1035.8 hPa | 0 mm | - | 191 W/m² | - |
| 1777834802 | 11.11° C | 44% | 1035.7 hPa | 0 mm | - | 236 W/m² | - |
| 1777834498 | 11.11° C | 43% | 1035.8 hPa | 0 mm | - | 255 W/m² | - |
| 1777834198 | 11.67° C | 42% | 1035.8 hPa | 0 mm | - | 714 W/m² | - |
| 1777833894 | 11.11° C | 41% | 1035.8 hPa | 0 mm | - | 611 W/m² | - |
* Rain latest hour (hover to see other rain measurements)
** Current wind speed in m/s (hover to see current wind gust speed)